Location: C�mpuri de-Sus
(45.9500°N, 22.5500°E)
Time: 18:32:06
(UTC+00:00)

Cosmos 839 Rocket - Pass Details

Date: 07 December 2023
Orbit: 960 x 2093 km, 65.9° (Epoch: 20 February)

Event Time Altitude Azimuth Distance (km) Brightness Sun altitude
Exits shadow 03:28:33 36° 287° (WNW) 2,965 5.9 -24.9°
Maximum altitude 03:32:22 44° 324° (NW) 2,668 5.9 -24.3°
Drops below altitude 10° 03:43:13 10° 35° (NE) 4,283 7.6 -22.4°
Sets 03:46:37 0° 42° (NE) 5,152 8.2 -21.8°
